| time (UTC) | temp F | wind direction | speed knots | gust knots | rain 1hr in | rain 24hr in | rain mn in | humidity % | barometer mb |
| 20260505052724 | 54 | 336 | 4.3 | 8.7 | 0.00 | 0.44 | 0.00 | 51 | 1003.7 |
| 20260505051804 | 55 | 334 | 7.8 | 12.2 | 0.00 | 0.44 | 0.00 | 49 | 1003.3 |
| 20260505050904 | 55 | 333 | 7.8 | 12.2 | 0.00 | 0.44 | 0.00 | 48 | 1003.1 |
| 20260505040904 | 57 | 331 | 5.2 | 8.7 | 0.00 | 0.44 | 0.44 | 49 | 1003.3 |
| 20260505040005 | 58 | 333 | 5.2 | 7.8 | 0.00 | 0.44 | 0.44 | 49 | 1003.2 |
| 20260505035404 | 58 | 330 | 5.2 | 7.8 | 0.00 | 0.44 | 0.44 | 48 | 1003.3 |
| 20260505034525 | 59 | 338 | 4.3 | 7.8 | 0.00 | 0.44 | 0.44 | 48 | 1003.2 |
| 20260505033625 | 59 | 346 | 6.1 | 9.6 | 0.00 | 0.44 | 0.44 | 43 | 1003.0 |
| 20260505032704 | 59 | 338 | 5.2 | 7.8 | 0.00 | 0.44 | 0.44 | 48 | 1003.2 |
| 20260505031804 | 59 | 335 | 5.2 | 9.6 | 0.00 | 0.44 | 0.44 | 50 | 1003.3 |
| 20260505030904 | 60 | 344 | 4.3 | 7.8 | 0.00 | 0.44 | 0.44 | 49 | 1003.0 |
| 20260505030004 | 59 | 339 | 3.5 | 5.2 | 0.00 | 0.44 | 0.44 | 52 | 1002.7 |
| 20260505025404 | 60 | 348 | 3.5 | 7.0 | 0.00 | 0.44 | 0.44 | 52 | 1002.7 |
| 20260505024504 | 61 | 346 | 5.2 | 8.7 | 0.00 | 0.44 | 0.44 | 48 | 1002.4 |
| 20260505023625 | 62 | 348 | 6.1 | 8.7 | 0.00 | 0.44 | 0.44 | 47 | 1002.2 |
| 20260505022725 | 62 | 349 | 7.0 | 9.6 | 0.00 | 0.44 | 0.44 | 46 | 1002.0 |
| 20260505021804 | 63 | 346 | 7.0 | 9.6 | 0.00 | 0.44 | 0.44 | 45 | 1001.7 |
| 20260505020904 | 64 | 348 | 7.0 | 10.4 | 0.00 | 0.44 | 0.44 | 44 | 1001.4 |
| 20260505020025 | 64 | 348 | 7.8 | 12.2 | 0.00 | 0.44 | 0.44 | 43 | 1001.1 |
| 20260505015404 | 64 | 341 | 7.8 | 12.2 | 0.00 | 0.44 | 0.44 | 43 | 1001.0 |
| 20260505014525 | 65 | 333 | 10.4 | 15.6 | 0.00 | 0.44 | 0.44 | 46 | 1000.6 |
| 20260505013604 | 66 | 332 | 9.6 | 15.6 | 0.00 | 0.44 | 0.44 | 42 | 1000.4 |
| 20260505012704 | 66 | 339 | 7.0 | 13.0 | 0.00 | 0.44 | 0.44 | 45 | 1000.1 |
| 20260505011804 | 67 | 337 | 5.2 | 9.6 | 0.00 | 0.44 | 0.44 | 45 | 999.9 |
| 20260505010925 | 68 | 332 | 7.0 | 10.4 | 0.00 | 0.44 | 0.44 | 47 | 999.6 |
| 20260505010004 | 69 | 326 | 7.8 | 12.2 | 0.00 | 0.44 | 0.44 | 48 | 999.4 |
| 20260505005404 | 69 | 312 | 5.2 | 10.4 | 0.00 | 0.44 | 0.44 | 54 | 999.3 |
| 20260505004504 | 70 | 292 | 0.9 | 7.8 | 0.03 | 0.44 | 0.44 | 57 | 999.1 |
| 20260505003603 | 70 | 249 | 1.7 | 5.2 | 0.10 | 0.44 | 0.44 | 57 | 998.8 |
| 20260505002703 | 69 | 249 | 0.9 | 3.5 | 0.17 | 0.44 | 0.44 | 61 | 998.4 |
| 20260505001804 | 69 | 299 | 2.6 | 10.4 | 0.35 | 0.44 | 0.44 | 61 | 998.1 |
| 20260505000903 | 70 | 230 | 6.1 | 12.2 | 0.37 | 0.44 | 0.44 | 58 | 997.6 |
| 20260505000003 | 68 | 234 | 7.8 | 16.5 | 0.37 | 0.44 | 0.44 | 56 | 997.1 |
| 20260504235404 | 66 | 253 | 7.8 | 13.9 | 0.37 | 0.44 | 0.44 | 62 | 997.2 |
| 20260504234504 | 64 | 241 | 7.0 | 19.1 | 0.34 | 0.41 | 0.41 | 69 | 997.2 |
| 20260504233604 | 61 | 204 | 4.3 | 11.3 | 0.27 | 0.34 | 0.34 | 69 | 997.4 |
| 20260504232704 | 63 | 296 | 11.3 | 33.9 | 0.20 | 0.27 | 0.27 | 64 | 998.5 |
| 20260504231804 | 67 | 303 | 10.4 | 20.0 | 0.02 | 0.09 | 0.09 | 62 | 998.3 |
| 20260504230904 | 67 | 313 | 2.6 | 7.0 | 0.03 | 0.07 | 0.07 | 67 | 997.8 |
| 20260504230004 | 66 | 15 | 0.9 | 1.7 | 0.07 | 0.07 | 0.07 | 65 | 997.3 |
| 20260504225425 | 65 | 29 | 0.9 | 1.7 | 0.07 | 0.07 | 0.07 | 66 | 997.3 |
| 20260504224504 | 65 | 32 | 0.9 | 2.6 | 0.07 | 0.07 | 0.07 | 70 | 997.4 |
| 20260504223625 | 65 | 10 | 2.6 | 4.3 | 0.07 | 0.07 | 0.07 | 71 | 997.5 |
| 20260504222724 | 65 | 348 | 6.1 | 13.0 | 0.07 | 0.07 | 0.07 | 68 | 997.7 |
| 20260504221825 | 65 | 334 | 13.9 | 29.5 | 0.07 | 0.07 | 0.07 | 64 | 998.1 |
| 20260504220924 | 69 | 313 | 18.2 | 33.9 | 0.04 | 0.04 | 0.05 | 58 | 998.3 |
| 20260504220003 | 81 | 229 | 7.0 | 16.5 | 0.00 | 0.00 | 0.00 | 28 | 997.4 |
| 20260504215403 | 81 | 226 | 8.7 | 18.2 | 0.00 | 0.00 | 0.00 | 27 | 997.1 |
| 20260504214524 | 82 | 227 | 8.7 | 18.2 | 0.00 | 0.00 | 0.00 | 26 | 997.2 |
| 20260504213603 | 82 | 221 | 11.3 | 20.0 | 0.00 | 0.00 | 0.00 | 26 | 997.2 |
| 20260504212724 | 83 | 222 | 7.8 | 18.2 | 0.00 | 0.00 | 0.00 | 27 | 997.3 |
| 20260504211803 | 84 | 236 | 7.8 | 16.5 | 0.00 | 0.00 | 0.00 | 25 | 997.3 |
| 20260504210903 | 82 | 224 | 8.7 | 19.1 | 0.00 | 0.00 | 0.00 | 26 | 997.3 |
| 20260504210004 | 83 | 222 | 10.4 | 19.1 | 0.00 | 0.00 | 0.00 | 26 | 997.6 |
| 20260504205403 | 83 | 223 | 9.6 | 18.2 | 0.00 | 0.00 | 0.00 | 27 | 997.6 |
| 20260504204504 | 83 | 227 | 7.8 | 17.4 | 0.00 | 0.00 | 0.00 | 27 | 997.7 |
| 20260504203604 | 83 | 235 | 6.1 | 18.2 | 0.00 | 0.00 | 0.00 | 26 | 998.1 |
| 20260504202703 | 83 | 224 | 7.8 | 18.2 | 0.00 | 0.00 | 0.00 | 25 | 998.2 |
| 20260504201824 | 83 | 236 | 6.1 | 17.4 | 0.00 | 0.00 | 0.00 | 27 | 998.1 |
| 20260504200903 | 82 | 223 | 6.1 | 13.0 | 0.00 | 0.00 | 0.00 | 27 | 998.4 |
| 20260504200004 | 82 | 225 | 7.8 | 18.2 | 0.00 | 0.00 | 0.00 | 27 | 998.6 |
| 20260504195403 | 82 | 230 | 7.0 | 18.2 | 0.00 | 0.00 | 0.00 | 30 | 998.5 |
| 20260504194503 | 82 | 225 | 7.8 | 18.2 | 0.00 | 0.00 | 0.00 | 29 | 998.5 |
| 20260504193603 | 82 | 220 | 8.7 | 22.6 | 0.00 | 0.00 | 0.00 | 28 | 998.6 |
| 20260504192703 | 82 | 219 | 9.6 | 18.2 | 0.00 | 0.00 | 0.00 | 30 | 998.7 |
| 20260504191803 | 82 | 222 | 8.7 | 20.9 | 0.00 | 0.00 | 0.00 | 28 | 998.7 |
| 20260504190903 | 82 | 220 | 8.7 | 20.0 | 0.00 | 0.00 | 0.00 | 28 | 998.8 |
| 20260504190003 | 82 | 221 | 10.4 | 20.9 | 0.00 | 0.00 | 0.00 | 29 | 998.8 |
| 20260504185424 | 82 | 223 | 8.7 | 19.1 | 0.00 | 0.00 | 0.00 | 30 | 998.9 |
| 20260504184503 | 81 | 223 | 11.3 | 18.2 | 0.00 | 0.00 | 0.00 | 27 | 998.9 |
| 20260504183604 | 82 | 220 | 9.6 | 19.1 | 0.00 | 0.00 | 0.00 | 31 | 998.9 |
| 20260504182703 | 82 | 217 | 9.6 | 16.5 | 0.00 | 0.00 | 0.00 | 31 | 998.9 |
| 20260504181824 | 81 | 218 | 9.6 | 17.4 | 0.00 | 0.00 | 0.00 | 26 | 998.8 |
| 20260504180903 | 81 | 214 | 8.7 | 16.5 | 0.00 | 0.00 | 0.00 | 27 | 998.9 |
| 20260504180003 | 80 | 216 | 10.4 | 17.4 | 0.00 | 0.00 | 0.00 | 25 | 998.8 |
| 20260504175424 | 80 | 221 | 10.4 | 17.4 | 0.00 | 0.00 | 0.00 | 30 | 998.8 |
| 20260504174503 | 80 | 222 | 8.7 | 16.5 | 0.00 | 0.00 | 0.00 | 31 | 999.0 |
| 20260504173603 | 79 | 214 | 9.6 | 17.4 | 0.00 | 0.00 | 0.00 | 35 | 999.1 |
| 20260504172724 | 79 | 222 | 9.6 | 14.8 | 0.00 | 0.00 | 0.00 | 34 | 999.2 |
| 20260504171803 | 78 | 227 | 8.7 | 15.6 | 0.00 | 0.00 | 0.00 | 35 | 999.3 |
| 20260504170903 | 78 | 218 | 10.4 | 18.2 | 0.00 | 0.00 | 0.00 | 35 | 999.3 |
| 20260504150925 | 73 | 225 | 13.0 | 20.9 | 0.00 | 0.00 | 0.00 | 42 | 1000.4 |
| 20260504140904 | 70 | 198 | 12.2 | 20.9 | 0.00 | 0.00 | 0.00 | 44 | 1000.8 |
| 20260504081825 | 51 | 201 | 4.3 | 7.8 | 0.00 | 0.00 | 0.00 | 65 | 1003.8 |
| 20260504080925 | 50 | 198 | 2.6 | 6.1 | 0.00 | 0.00 | 0.00 | 64 | 1003.8 |